Voltar ao catálogo

STARLINK-36906

AtivoComunicaçõesSSO
NORAD 68036·PAYLOAD·🇺🇸 United States

Lançado Mar 1, 2026 de Vandenberg Space Force Base

Loading…

Próximas Passagens (próximas 24 horas)

TLE

AtualizadoSource: CelesTrak SupGP

Época: Sep 15, 2026, 03:53 UTC

1 68036C 26040X   26258.16229167  .00064841  00000+0  20134-2 0  2584
2 68036  97.2853 205.6086 0001796  91.5081 214.2164 15.33397121    19

Acompanhe STARLINK-36906 em tempo real com AllMySat

Download on the App Store